Regional Weather Roundup
Issued by NWS

Home | Current Version | Previous Version | Text Only | Print | Product List | Glossary Off
Versions: 1 2 3 4 5 6 7 8 9 10 11 12 13 14 15 16 17 18 19 20 21 22 23 24 25 26 27 28 29 30 31 32 33 34 35 36 37 38 39 40 41 42 43 44 45 46 47 48 49 50

000
ASUS45 KBOI 172310
RWRID
WEATHER ROUNDUP FOR IDAHO
NATIONAL WEATHER SERVICE BOISE ID
500 PM MDT FRI APR 17 2015

NOTE: "FAIR" INDICATES FEW OR NO CLOUDS BELOW 12000 FEET
WITH NO SIGNIFICANT WEATHER AND/OR OBSTRUCTIONS TO VISIBILITY

IDZ012-014-180000-
SOUTHWEST IDAHO


CITY           SKY/WX    TMP DP  RH WIND       PRES   REMARKS
BOISE          SUNNY     71  26  18 NW12      30.05F
CALDWELL       SUNNY     72  34  25 NW8       30.06F
MOUNTAIN HOME  SUNNY     72  22  15 NW16G26   30.04F
$$

IDZ016-017-180000-
SOUTHCENTRAL IDAHO


CITY           SKY/WX    TMP DP  RH WIND       PRES   REMARKS
BURLEY         SUNNY     66  20  17 W7        30.04F
JEROME         SUNNY     66  20  17 W14G21    30.06F
TWIN FALLS     SUNNY     69  23  17 W15G21    30.06F
$$

IDZ019>023-180000-
SOUTHEAST IDAHO


CITY           SKY/WX    TMP DP  RH WIND       PRES   REMARKS
IDAHO FALLS    SUNNY     67  15  13 SW8       30.03F
POCATELLO      SUNNY     67  21  17 W7        30.04F
REXBURG        SUNNY     67  16  14 SE6       30.00F
$$

IDZ006-010-011-018-031-032-180000-
CENTRAL IDAHO MOUNTAINS


CITY           SKY/WX    TMP DP  RH WIND       PRES   REMARKS
MCCALL         SUNNY     64  26  23 VRB6      30.09F
HAILEY         SUNNY     66  27  22 SW13      30.06F
STANLEY          N/A     64  14  14 N8        30.11F
SALMON         SUNNY     68  12  11 CALM      30.01F
CHALLIS        SUNNY     68   9  10 NW5       30.03F
$$

IDZ002-004-006-007-026-180000-
NORTHERN IDAHO


CITY           SKY/WX    TMP DP  RH WIND       PRES   REMARKS
LEWISTON       SUNNY     73  40  30 NW12      30.09F
LOWELL           N/A     76  31  19 SE8       30.03F
COEUR D`ALENE  SUNNY     66  37  34 SW9       30.09F
MULLAN PASS    SUNNY     53  28  38 NW9G16    30.15F
$$



USA.gov is the U.S. government's official web portal to all federal, state and local government web resources and services.